www.pogodaiklimat.ru

Погода и климат >> Архив погоды >> Буркина-Фасо >> Уагадугу


ПОГОДА в Уагадугу

  • Прогноз погоды в Уагадугу
  • Монитор погоды в Уагадугу

АРХИВ ПОГОДЫ в Уагадугу

Время (UTC), дата Ветер
(напр.,м/с)
 
Видим.   Явления Облачность Т
(С)
Тd
(С)
f
(%)
Тe
(С)
Тes
(С)
Комфортность P
(гПа)
Po
(гПа)
Тmin
(С)
Tmax
(С)
R
(мм)
R24
(мм)
S
(см)
03 12.02 СВ 2 10 км 9/0
[Ci sp]
+19.5 -1.3 25 +20 +20 1011.5 977.3
09 12.02 СВ 5 4500 м пыль 9/0
[Ci sp]
+25.6 -7.5 11 +23 +26 комфорт 1014.2 979.8
15 12.02 В 6 10 км 9/0
[Ci sp]
+33.5 -11.3 5 +29 +32 жарко 1010.4 976.2
21 12.02 СВ 3 10 км 9/0
[Ci sp]
+25.0 -2.8 16 +23 +23 комфорт 1013.1 978.7
03 13.02 СВ 1 10 км 9/0
[Ci sp]
+20.5 +0.7 27 +22 +22 комфорт 1012.1 977.9
09 13.02 СВ 8 8000 м пыль 9/0
[Ci sp]
+27.2 -9.0 9 +24 +25 комфорт 1014.7 980.3
15 13.02 В 5 10 км 9/0
[Ci sp]
+34.4 -3.4 9 +30 +34 жарко 1010.4 976.3
21 13.02 СВ 2 8000 м пыль 9/0
[Ci sp]
+25.8 +1.2 20 +24 +24 комфорт 1013.1 978.8
03 14.02 СВ 2 10 км 9/0
[Ci sp]
+21.8 +1.1 25 +21 +21 комфорт 1012.5 978.4
09 14.02 В 6 10 км 9/0
[Ci sp]
+27.0 -1.4 15 +25 +27 комфорт 1015.3 981.0
15 14.02 ЮВ 3 10 км 9/0
[Ci sp]
+34.8 -1.1 10 +31 +37 жарко 1011.0 977.0
21 14.02 СВ 3 10 км 9/0
[Ci sp]
+26.8 +1.5 19 +25 +25 комфорт 1014.1 979.9
03 15.02 СВ 4 10 км 9/0
[Ci sp]
+23.4 -1.8 19 +22 +22 комфорт 1014.3 980.3
09 15.02 В 7 4500 м пыль 9/0
[Ci sp]
+26.0 -1.2 17 +24 +26 комфорт 1017.1 982.7
15 15.02 СВ 4 8000 м пыль 9/0
[Ci sp]
+33.7 -7.3 7 +29 +34 жарко 1011.6 977.6
21 15.02 СВ 2 8000 м пыль 9/0
[Ci sp]
+25.7 -1.9 16 +24 +24 комфорт 1014.5 980.1
03 16.02 СВ 3 10 км 9/0
[Ci sp]
+21.3 -6.2 15 +20 +20 1012.4 978.3
09 16.02 В 6 10 км пыль 9/0
[Ci sp]
+25.6 -9.5 9 +23 +25 комфорт 1014.8 980.4
15 16.02 В 4 10 км 9/0
[Ci sp]
+33.4 -7.8 7 +29 +34 жарко 1010.1 976.0
21 16.02 СВ 3 10 км 9/0
[Ci sp]
+25.4 -1.7 17 +24 +24 комфорт 1012.9 978.5
03 17.02 СВ 1 10 км 9/0
[Ci sp]
+21.5 -0.2 23 +21 +21 комфорт 1012.0 977.9
09 17.02 ЮВ 6 6000 м пыль 9/0
[Ci sp]
+26.3 -7.6 10 +23 +26 комфорт 1014.3 979.9
15 17.02 СВ 2 8000 м пыль 9/0
[Ci sp]
+34.8 -1.1 10 +31 +39 жарко 1009.0 975.1
21 17.02 СВ 1 8000 м пыль 9/0
[Ci sp]
+27.5 +5.9 25 +27 +27 жарко 1011.8 977.6
03 18.02 СВ 1 10 км 9/0
[Ci sp]
+23.1 +2.6 26 +23 +23 комфорт 1008.9 976.0
09 18.02 В 5 3500 м пыль 9/0
[Ci sp]
+28.6 -8.4 8 +25 +28 комфорт 1012.5 978.4
15 18.02 СВ 3 10 км 9/0
[Ci sp]
+36.5 -2.8 8 +32 +39 жарко 1007.3 973.6
21 18.02 В 4 8000 м пыль 9/0
[Ci sp]
+28.2 +4.4 22 +27 +27 жарко 1010.0 976.1

 

Местоположение метеостанции Уагадугу (Буркина-Фасо): широта 12.35 долгота -1.52 высота над уровнем моря 306 м.

В архиве по умолчанию представлена погода в Уагадугу за последнюю неделю. Архивные данные за месяц целиком и за предыдущие месяцы, начиная с января 2011 года, Вы можете получить, выбрав интересующий диапазон дат из раскрывающегося списка и нажав кнопку "Ввод!".


*Определитесь, кто Вы:
робот инопланетянин человек

Внимание! Время в таблицах - всемирное. Для получения местного времени необходимо прибавить поправку, которая равна 0 ч.

Смотрите также архив погоды в соседних городах и на ближайших метеорологических станциях:

Погода в По (Буркина-Фасо) (139 км)
Погода в Вахигуе (Буркина-Фасо) (167 км)
Погода в Боромо (Буркина-Фасо) (167 км)
Погода в Навронго (Гана) (168 км)
Погода в Фада-Нгурме (Буркина-Фасо) (209 км)
Погода в Дедугу (Буркина-Фасо) (213 км)
Погода в Дори (Буркина-Фасо) (247 км)
Погода в Дапаоне (Того) (262 км)
Погода в Ва (Гана) (277 км)
Погода в Гауа (Буркина-Фасо) (289 км)

Пояснения к столбцам:

Ветер - указаны скорость ветра в м/с - средняя за 10 мин, порывы в срок и между сроками (в фигурных скобках) и направление, откуда дует ветер: С - северный, СВ - северо-восточный, В - восточный, ЮВ - юго-восточный, Ю - южный, ЮЗ - юго-западный, З - западный, СЗ - северо-западный.
Видимость - горизонтальная дальность видимости в метрах или километрах. При видимости от 1 до 10 км при отсутствии осадков обычно наблюдается дымка, при ухудшении видимости до 1 км и менее - туман. В сухую погоду видимость может ухудшаться дымом, пылью или мглою.
Явления - указаны атмосферные явления, наблюдавшиеся в срок или в последний час перед сроком; фигурными скобками обозначены явления, наблюдавшиеся между сроками (за 1-3 часа до срока); квадратными скобками обозначены град или гололедные отложения с указанием их диаметра в мм.
Облачность - указаны через наклонную черту общая и нижняя облачность в баллах и высота нижней границы облаков в метрах; квадратными скобками обозначены формы облаков: Ci - перистые, Cs - перисто-слоистые, Cc - перисто-кучевые, Ac - высококучевые, As - высокослоистые, Sc - слоисто-кучевые, Ns - слоисто-дождевые, Cu - кучевые, Cb - кучево-дождевые. Подробнее классификацию облаков см. в Атласе облаков (PDF).
T - Температура воздуха - температура, измеренная на высоте 2 м над землей.
Td - Температура точки росы - температура, при понижении до которой содержащийся в воздухе водяной пар достигнет насыщения.
f - Относительная влажность воздуха - влажноcть воздуха, измеренная на высоте 2 м над землей.
Te - Эффективная температура - температура, которую ощущает одетый по сезону человек в тени. Характеристика душности погоды. При расчете учитывается влияние влажности воздуха и скорости ветра на теплоощущения человека.
Tes - Эффективная температура на солнце - температура, которую ощущает человек, с поправкой на солнечный нагрев. Характеристика знойности погоды. Зависит от высоты солнца над горизонтом, облачности и скорости ветра. Ночью, в пасмурную погоду, а также при ветре 12 м/с и более поправка равна нулю.
P - Атмосферное давление - приведенное к уровню моря атмосферное давление.
Po - Атмосферное давление - измеренное на уровне метеостанции атмосферное давление.
Tmin - Минимальная температура - минимум температуры воздуха на высоте 2 м над землей.
Tmax - Максимальная температура - максимум температуры воздуха на высоте 2 м над землей.
R - Количество осадков - Количество выпавших осадков за период времени, мм. При наведении курсора мыши на число - период времени, за который выпало указанное количество осадков.
R24 - Количество осадков - Количество выпавших осадков за 24 часа, мм.
S - Снежный покров - Высота снежного покрова, см. При наведении курсора мыши на число - состояние снежного покрова и степень покрытия местности в баллах.